Weather History for Mosinee, WI

Change the Weather History Date:

Sunday, January 6, 2013

  Actual Average Record
Temperature  
Mean Temperature 18 °F -  
Max Temperature 28 °F 22 °F 41 °F (2012)
Min Temperature 8 °F 6 °F -25 °F (2014)
Degree Days  
Heating Degree Days 47    
Moisture  
Dew Point 17 °F    
Average Humidity 91    
Maximum Humidity 100    
Minimum Humidity 74    
Precipitation  
Precipitation 0.00 in - - ()
Sea Level Pressure  
Sea Level Pressure 30.04 in    
Wind  
Wind Speed 7 mph (West)    
Max Wind Speed 12 mph    
Max Gust Speed 18 mph    
Visibility 10 miles    
Events      
Averages and records for this station are not official NWS values.
T = Trace of Precipitation, MM = Missing Value Source: NWS Daily Summary

Daily Weather History Graph

Daily Weather History Graph

Search for Another Location

Airport:

Trip Planner

Search our weather history database for the weather conditions in past years. The results will help you decide how hot, cold, wet, or windy it might be!

Date:

Astronomy

Jan. 06, 2013 Rise Set
Actual Time 7:35 AM CST 4:33 PM CST
Civil Twilight 7:02 AM CST 5:07 PM CST
Nautical Twilight 6:25 AM CST 5:43 PM CST
Astronomical Twilight 5:50 AM CST 6:19 PM CST
Moon 1:44 AM CST (1/6) 12:05 PM CST (1/6)
Length of Visible Light 10h 04m
Length of Day
8h 58m
Waning Crescent, 33% of the Moon is Illuminated
Jan 6
Waning Crescent
Jan 11
New
Jan 18
First Quarter
Jan 26
Full
Feb 3
Last Quarter

Hourly Weather History & Observations

Time (CST) Temp. Windchill Dew Point Humidity Pressure Visibility Wind Dir Wind Speed Gust Speed Precip Events Conditions
12:15 AM 21.2 °F 10.9 °F 15.8 °F 80% 29.84 in 10.0 mi West 9.2 mph - N/A   Scattered Clouds
12:35 AM 21.2 °F 10.9 °F 17.6 °F 86% 29.84 in 10.0 mi WNW 9.2 mph - N/A   Clear
12:55 AM 21.2 °F 12.6 °F 17.6 °F 86% 29.85 in 10.0 mi West 6.9 mph - N/A   Mostly Cloudy
1:15 AM 21.2 °F 14.9 °F 17.6 °F 86% 29.85 in 10.0 mi West 4.6 mph - N/A   Overcast
1:35 AM 19.4 °F 10.4 °F 17.6 °F 93% 29.86 in 10.0 mi WNW 6.9 mph - N/A   Mostly Cloudy
1:55 AM 19.4 °F 10.4 °F 17.6 °F 93% 29.85 in 10.0 mi NW 6.9 mph - N/A   Overcast
2:15 AM 19.4 °F 11.5 °F 17.6 °F 93% 29.86 in 10.0 mi NW 5.8 mph - N/A   Overcast
2:35 AM 21.2 °F 12.6 °F 17.6 °F 86% 29.87 in 10.0 mi WNW 6.9 mph - N/A   Overcast
2:55 AM 21.2 °F 10.9 °F 19.4 °F 93% 29.88 in 10.0 mi NW 9.2 mph - N/A   Overcast
3:15 AM 21.2 °F 11.7 °F 19.4 °F 93% 29.88 in 10.0 mi WNW 8.1 mph - N/A   Overcast
3:35 AM 21.2 °F 10.9 °F 19.4 °F 93% 29.89 in 7.0 mi NW 9.2 mph - N/A   Overcast
4:15 AM 23.0 °F 13.1 °F 21.2 °F 93% 29.89 in 10.0 mi WNW 9.2 mph 16.1 mph N/A   Overcast
4:35 AM 23.0 °F 11.7 °F 23.0 °F 100% 29.89 in 10.0 mi NW 11.5 mph - N/A   Overcast
6:45 AM 21.2 °F 10.9 °F 19.4 °F 93% 29.96 in 10.0 mi WNW 9.2 mph - N/A   Overcast
7:45 AM 19.4 °F 11.5 °F 17.6 °F 93% 29.99 in 10.0 mi NW 5.8 mph - N/A   Scattered Clouds
8:45 AM 23.0 °F 13.1 °F 21.2 °F 93% 30.03 in 10.0 mi NW 9.2 mph - N/A   Overcast
9:45 AM 24.8 °F 15.3 °F 21.2 °F 86% 30.06 in 10.0 mi NW 9.2 mph - N/A   Overcast
10:50 AM 26.6 °F 16.2 °F 23.0 °F 86% 30.08 in 10.0 mi NW 11.5 mph 18.4 mph N/A   Overcast
11:45 AM 28.4 °F 19.7 °F 23.0 °F 80% 30.08 in 10.0 mi WNW 9.2 mph 17.3 mph N/A   Overcast
12:45 PM 28.4 °F 19.1 °F 21.2 °F 74% 30.07 in 10.0 mi WNW 10.4 mph 17.3 mph N/A   Overcast
1:45 PM 26.6 °F 17.5 °F 21.2 °F 80% 30.09 in 10.0 mi WNW 9.2 mph - N/A   Mostly Cloudy
2:45 PM 26.6 °F 16.8 °F 19.4 °F 74% 30.12 in 10.0 mi West 10.4 mph - N/A   Mostly Cloudy
3:45 PM 24.8 °F 16.1 °F 19.4 °F 80% 30.15 in 10.0 mi West 8.1 mph - N/A   Mostly Cloudy
4:45 PM 21.2 °F 12.6 °F 17.6 °F 86% 30.17 in 10.0 mi WSW 6.9 mph - N/A   Clear
5:50 PM 17.6 °F - 15.8 °F 93% 30.17 in 10.0 mi Calm Calm - N/A   Clear
6:55 PM 15.8 °F 8.6 °F 15.8 °F 100% 30.18 in 10.0 mi SW 4.6 mph - N/A   Clear
7:55 PM 14.0 °F 6.5 °F 12.2 °F 93% 30.18 in 10.0 mi SSW 4.6 mph - N/A   Clear
8:55 PM 12.2 °F 4.3 °F 12.2 °F 100% 30.17 in 10.0 mi SSW 4.6 mph - N/A   Clear
9:15 PM 14.0 °F 8.2 °F 12.2 °F 93% 30.18 in 10.0 mi SW 3.5 mph - N/A   Clear
9:35 PM 14.0 °F - 12.2 °F 93% 30.17 in 10.0 mi Calm Calm - N/A   Clear
9:50 PM 12.2 °F - 12.2 °F 100% 30.18 in 10.0 mi Calm Calm - N/A   Clear
9:55 PM 12.2 °F - 12.2 °F 100% 30.18 in 7.0 mi Calm Calm - N/A   Clear
10:15 PM 12.2 °F 4.3 °F 10.4 °F 92% 30.17 in 10.0 mi South 4.6 mph - N/A   Clear
10:35 PM 10.4 °F 0.8 °F 10.4 °F 100% 30.17 in 10.0 mi South 5.8 mph - N/A   Clear
10:55 PM 10.4 °F 4.0 °F 10.4 °F 100% 30.17 in 10.0 mi South 3.5 mph - N/A   Clear
11:15 PM 10.4 °F 4.0 °F 10.4 °F 100% 30.18 in 10.0 mi SSW 3.5 mph - N/A   Clear
11:35 PM 8.6 °F -1.3 °F 8.6 °F 100% 30.17 in 10.0 mi South 5.8 mph - N/A   Clear
11:55 PM 10.4 °F 0.8 °F 10.4 °F 100% 30.15 in 10.0 mi SSE 5.8 mph - N/A   Clear